Location: Newark
(34.0131°N, 4.3314°W)
Time: 14:29:31
(UTC+00:00)

Transit 2A Rocket - Pass Details

Date: 24 October 2019
Orbit: 594 x 909 km, 66.7° (Epoch: 11 November)

Event Time Altitude Azimuth Distance (km) Brightness Sun altitude
Rises 12:44:32 0° 344° (NNW) 2,836 7.6 43.1°
Reaches altitude 10° 12:46:58 10° 355° (N) 1,933 6.8 43.0°
Maximum altitude 12:50:49 31° 58° (ENE) 1,065 5.8 42.8°
Drops below altitude 10° 12:54:46 10° 122° (ESE) 1,986 7.4 42.5°
Sets 12:57:17 0° 132° (SE) 2,928 8.3 42.3°
